When you browse on this site, cookies collect data to enhance your experience and personalize the content and advertising you see.
Visit our Privacy Policy to learn more. By continuing to use the site, you agree to this use of cookies and data.
  • In Latvia
  • List of Countries
  • For 7 days
  • Water Temperature
  • Satellite Maps
  • Weather Map
  • Weather Widgets
  • user-avatar
    Login

    Hourly Weather Ghazni

    Today, 14 December, Friday

    Time Temperature Precipitation Wind Pressure Humidity
    00:00 +1°C° 0 mm 1 mps 585 mmHg 52%
    01:00 0°C° 0 mm 1 mps 585 mmHg 53%
    02:00 0°C° 0 mm 1 mps 585 mmHg 53%
    03:00 0°C° 0 mm 1 mps 585 mmHg 54%
    04:00 0°C° 0 mm 1 mps 584 mmHg 54%
    05:00 -1°C° 0 mm 1 mps 584 mmHg 55%
    06:00 0°C° 0 mm 1 mps 584 mmHg 54%
    07:00 0°C° 0 mm 1 mps 585 mmHg 53%
    08:00 0°C° 0 mm 1 mps 585 mmHg 52%
    09:00 +1°C° 0 mm 1 mps 586 mmHg 46%
    10:00 +3°C° 0 mm 1 mps 586 mmHg 40%
    11:00 +4°C° 0 mm 0 mps 587 mmHg 33%
    12:00 +6°C° 0 mm 1 mps 587 mmHg 31%
    13:00 +6°C° 0 mm 1 mps 587 mmHg 29%
    14:00 +7°C° 0 mm 1 mps 587 mmHg 27%
    15:00 +6°C° 0 mm 1 mps 587 mmHg 31%
    16:00 +5°C° 0 mm 1 mps 586 mmHg 35%
    17:00 +4°C° 0 mm 1 mps 586 mmHg 38%
    18:00 +4°C° 0 mm 1 mps 586 mmHg 40%
    19:00 +2°C° 0 mm 0 mps 586 mmHg 42%
    20:00 +1°C° 0 mm 0 mps 586 mmHg 44%
    21:00 +1°C° 0 mm 0 mps 586 mmHg 43%
    22:00 0°C° 0 mm 0 mps 586 mmHg 43%
    23:00 0°C° 0 mm 0 mps 586 mmHg 42%

    Tomorrow, 15 December, Saturday

    Time Temperature Precipitation Wind Pressure Humidity
    00:00 0°C° 0 mm 0 mps 586 mmHg 42%
    01:00 0°C° 0 mm 0 mps 585 mmHg 41%
    02:00 +1°C° 0 mm 1 mps 585 mmHg 40%
    03:00 +1°C° 0 mm 1 mps 585 mmHg 39%
    04:00 0°C° 0 mm 1 mps 585 mmHg 38%
    05:00 0°C° 0 mm 1 mps 585 mmHg 37%
    06:00 0°C° 0 mm 1 mps 585 mmHg 35%
    07:00 0°C° 0 mm 1 mps 585 mmHg 34%
    08:00 +1°C° 0 mm 1 mps 585 mmHg 33%
    09:00 +2°C° 0 mm 1 mps 586 mmHg 29%
    10:00 +3°C° 0 mm 0 mps 587 mmHg 24%
    11:00 +5°C° 0 mm 0 mps 588 mmHg 20%
    12:00 +6°C° 0 mm 0 mps 588 mmHg 20%
    13:00 +7°C° 0 mm 1 mps 588 mmHg 19%
    14:00 +8°C° 0 mm 1 mps 588 mmHg 19%
    15:00 +7°C° 0 mm 1 mps 587 mmHg 22%
    16:00 +5°C° 0 mm 0 mps 587 mmHg 26%
    17:00 +4°C° 0 mm 0 mps 586 mmHg 30%
    18:00 +3°C° 0 mm 0 mps 586 mmHg 31%
    19:00 +2°C° 0 mm 0 mps 586 mmHg 32%
    20:00 +2°C° 0 mm 0 mps 586 mmHg 33%
    21:00 +1°C° 0 mm 0 mps 586 mmHg 32%
    22:00 +2°C° 0 mm 1 mps 586 mmHg 31%
    23:00 +2°C° 0 mm 1 mps 586 mmHg 30%

    Day after tomorrow, 16 December, Sunday

    Time Temperature Precipitation Wind Pressure Humidity
    00:00 +2°C° 0 mm 1 mps 586 mmHg 29%
    01:00 +2°C° 0 mm 1 mps 586 mmHg 28%
    02:00 +2°C° 0 mm 1 mps 586 mmHg 27%
    03:00 +2°C° 0 mm 1 mps 586 mmHg 26%
    04:00 +2°C° 0 mm 1 mps 586 mmHg 25%
    05:00 -1°C° 0 mm 2 mps 585 mmHg 24%
    06:00 +1°C° 0 mm 1 mps 586 mmHg 24%
    07:00 +1°C° 0 mm 1 mps 586 mmHg 23%
    08:00 +1°C° 0 mm 1 mps 586 mmHg 23%
    09:00 +3°C° 0 mm 1 mps 587 mmHg 20%
    10:00 +5°C° 0 mm 1 mps 588 mmHg 18%
    11:00 +7°C° 0 mm 1 mps 589 mmHg 15%
    12:00 +8°C° 0 mm 1 mps 589 mmHg 15%
    13:00 +9°C° 0 mm 1 mps 589 mmHg 14%
    14:00 +9°C° 0 mm 1 mps 588 mmHg 14%
    15:00 +8°C° 0 mm 1 mps 588 mmHg 17%
    16:00 +6°C° 0 mm 0 mps 587 mmHg 21%
    17:00 +5°C° 0 mm 0 mps 586 mmHg 24%
    18:00 +4°C° 0 mm 0 mps 586 mmHg 24%
    19:00 +3°C° 0 mm 0 mps 586 mmHg 25%
    20:00 +2°C° 0 mm 0 mps 586 mmHg 26%
    21:00 +2°C° 0 mm 0 mps 586 mmHg 26%
    22:00 +2°C° 0 mm 0 mps 586 mmHg 25%
    23:00 +1°C° 0 mm 0 mps 586 mmHg 25%

    17 December, Monday

    Time Temperature Precipitation Wind Pressure Humidity
    00:00 +1°C° 0 mm 0 mps 586 mmHg 25%
    01:00 +1°C° 0 mm 0 mps 586 mmHg 25%
    02:00 +2°C° 0 mm 1 mps 585 mmHg 25%
    03:00 +1°C° 0 mm 1 mps 585 mmHg 25%
    04:00 +1°C° 0 mm 1 mps 585 mmHg 24%
    05:00 +1°C° 0 mm 1 mps 585 mmHg 24%
    06:00 +1°C° 0 mm 1 mps 585 mmHg 23%
    07:00 +1°C° 0 mm 1 mps 585 mmHg 23%
    08:00 +1°C° 0 mm 1 mps 586 mmHg 22%
    09:00 +3°C° 0 mm 1 mps 587 mmHg 20%
    10:00 +5°C° 0 mm 1 mps 588 mmHg 17%
    11:00 +6°C° 0 mm 0 mps 589 mmHg 14%
    12:00 +8°C° 0 mm 1 mps 588 mmHg 14%
    13:00 +9°C° 0 mm 1 mps 588 mmHg 14%
    14:00 +9°C° 0 mm 1 mps 588 mmHg 14%
    15:00 +8°C° 0 mm 1 mps 587 mmHg 17%
    16:00 +7°C° 0 mm 1 mps 587 mmHg 20%
    17:00 +6°C° 0 mm 1 mps 586 mmHg 24%
    18:00 +5°C° 0 mm 1 mps 586 mmHg 24%
    19:00 +4°C° 0 mm 1 mps 586 mmHg 25%
    20:00 +2°C° 0 mm 0 mps 586 mmHg 26%
    21:00 +2°C° 0 mm 0 mps 586 mmHg 25%
    22:00 +1°C° 0 mm 0 mps 586 mmHg 25%
    23:00 +1°C° 0 mm 0 mps 586 mmHg 25%

    18 December, Tuesday

    Time Temperature Precipitation Wind Pressure Humidity
    00:00 +1°C° 0 mm 0 mps 586 mmHg 24%
    01:00 +1°C° 0 mm 0 mps 585 mmHg 24%
    02:00 +1°C° 0 mm 0 mps 585 mmHg 24%
    03:00 0°C° 0 mm 0 mps 585 mmHg 24%
    04:00 +1°C° 0 mm 1 mps 584 mmHg 23%
    05:00 +1°C° 0 mm 1 mps 584 mmHg 23%
    06:00 +1°C° 0 mm 1 mps 584 mmHg 23%
    07:00 +1°C° 0 mm 1 mps 585 mmHg 22%
    08:00 +1°C° 0 mm 1 mps 585 mmHg 22%
    09:00 +4°C° 0 mm 1 mps 586 mmHg 19%
    10:00 +5°C° 0 mm 0 mps 587 mmHg 17%
    11:00 +7°C° 0 mm 0 mps 588 mmHg 14%
    12:00 +9°C° 0 mm 1 mps 588 mmHg 14%
    13:00 +9°C° 0 mm 1 mps 587 mmHg 14%
    14:00 +10°C° 0 mm 1 mps 587 mmHg 13%
    15:00 +9°C° 0 mm 1 mps 586 mmHg 17%
    16:00 +7°C° 0 mm 1 mps 585 mmHg 20%
    17:00 +6°C° 0 mm 1 mps 585 mmHg 23%
    18:00 +5°C° 0 mm 1 mps 585 mmHg 23%
    19:00 +5°C° 0 mm 1 mps 585 mmHg 24%
    20:00 +4°C° 0 mm 1 mps 584 mmHg 24%
    21:00 +3°C° 0 mm 1 mps 584 mmHg 24%
    22:00 +3°C° 0 mm 1 mps 584 mmHg 24%
    23:00 +3°C° 0 mm 1 mps 584 mmHg 23%

    19 December, Wednesday

    Time Temperature Precipitation Wind Pressure Humidity
    00:00 +2°C° 0 mm 1 mps 583 mmHg 23%
    01:00 +2°C° 0 mm 1 mps 583 mmHg 23%
    02:00 +2°C° 0 mm 1 mps 582 mmHg 23%
    03:00 +2°C° 0 mm 1 mps 582 mmHg 22%
    04:00 +1°C° 0 mm 1 mps 582 mmHg 22%
    05:00 +1°C° 0 mm 1 mps 581 mmHg 22%
    06:00 +1°C° 0 mm 1 mps 582 mmHg 21%
    07:00 +1°C° 0 mm 1 mps 582 mmHg 21%
    08:00 +1°C° 0 mm 1 mps 582 mmHg 20%
    09:00 +3°C° 0 mm 1 mps 583 mmHg 18%
    10:00 +5°C° 0 mm 1 mps 585 mmHg 15%
    11:00 +7°C° 0 mm 1 mps 586 mmHg 12%
    12:00 +7°C° 0 mm 2 mps 585 mmHg 12%
    13:00 +7°C° 0 mm 2 mps 585 mmHg 11%
    14:00 +8°C° 0 mm 3 mps 585 mmHg 11%
    15:00 +7°C° 0 mm 2 mps 584 mmHg 13%
    16:00 +6°C° 0 mm 2 mps 584 mmHg 16%
    17:00 +6°C° 0 mm 1 mps 583 mmHg 18%
    18:00 +5°C° 0 mm 1 mps 583 mmHg 19%
    19:00 +4°C° 0 mm 1 mps 583 mmHg 20%
    20:00 +3°C° 0 mm 1 mps 583 mmHg 21%
    21:00 +3°C° 0 mm 1 mps 583 mmHg 21%
    22:00 +2°C° 0 mm 1 mps 583 mmHg 22%
    23:00 +2°C° 0 mm 1 mps 583 mmHg 22%
    Show more